SCP
0 0 0 0 0 0 0 0 0 0 0 0 -0 -0 0 0 0 0 0 0 0 0 0 0 0 0 0 0 0 0 0 0 0 0 0 0 0 0
0 0 0 0 0 0 0 0 0 0 0 0 0 -0 0 0 0 0 0 0 0 0 0 0 0 0 0 0 0 0 0 0 0 0 0 0 0 0
0 0 0 0 0 0 0 0 0 0 0 0 0 0 0 0 0 0 0 0 0 0 0 0 0 0 0 0 0 0 0 0 0 0 0 0 0 0
0 0 0 0 0 0 0 0 0 0 0 0 0 0 0 0 0 0 0 0 0 0 0 0 0 0 0 0 0 0 0 0 0 0 0 0 0 0
0 0 0 0 0 0 0 0 0 0 0 0 0 0 0 0 0 0 0 0 0 0 0 0 0 0 0 0 0 0 0 0 0 0 0 0 0 0
0 0 0 0 0 0 0 0 0 0 0 0 0 0 0 0 0 0 0 0 0 0 0 0 0 0 0 0 0 0 0 0 0 0 0 0 0 0
0 0 0 0 0 0 0 0 0 0 0 0 0 0 0 0 0 0 0 0 0 0 0 0 0 0 0 0 0 0 0 0 0 0 0 0 0 0
0 0 0 0 0 0 0 0 0 0 0 0 0 0 0 0 0 0 0 0 0 0 0 0 0 0 0 0 0 0 0 0 0 0 0 0 0 0
0 0 0 0 0 0 0 0 0 0 0 0 0 0 0 0 0 0 0 0 0 0 0 0 0 0 0 0 0 0 0 0 0 0 0 0 0 0
0 0 0 0 0 0 0 0 0 0 0 0 0 0 0 0 0 0 0 0 0 0 0 0 0 0 0 0 0 0 0 0 0 0 0 0 0 0
0 0 0 0 0 0 0 0 0 0 0 0 0 0 0 0 0 0 0 0 0 0 0 0 0 0 0 0 0 0 0 0 0 0 0 0 0 0
0 0 0 0 0 0 0 0 0 0 0 0 0 0 0 0 0 0 0 0 0 0 0 0 0 0 0 0 0 0 0 0 0 0 0 0 0 0
0 0 0 0 0 0 0 0 0 0 0 0 0 0 0 0 0 0 0 0 0 0 0 0 0 0 0 0 0 0 0 0 0 0 0 0 0 0
0 0 0 0 0 0 0 0 0 0 0 0 0 0 0 0 0 0 0 0 0 0 0 0 0 0 0 0 0 0 0 0 0 0 0 0 0 0
0 0 0 0 0 0 0 0 0 0 0 0 0 0 0 0 0 0 0 0 0 0 0 0 0 0 0 0 0 0 0 0 0 0 0 0 0 0
0 0 0 0 0 0 0 0 0 0 0 0 0 0 0 0 0 0 0 0 0 0 0 0 0 0 0 0 0 0 0 0 0 0 0 0 0 0
0 0 0 0 0 0 0 0 0 0 0 0 0 0 0 0 0 0 0 0 0 0 0 0 0 0 0 0 0 0 0 0 0 0 0 0 0 0
0 0 0 0 0 0 0 0 0 0 0 0 0 0 0 0 0 0 0 0 0 0 0 0 0 0 0 0 0 0 0 0 0 0 0 0 0 0
0 0 0 0 0 0 0 0 0 0 0 0 0 0 0 0 0 0 0 0 0 0 0 0 0 0 0 0 0 0 0 0 0 0 0 0 0 0
0 0 0 0 0 0 0 0 0 0 0 0 0 0 0 0 0 0 0 0 0 0 0 0 0 0 0 0 0 0 0 0 0 0 0 0 0 0
0 0 0 0 0 0 0 0 0 0 0 0 0 0 0 0 0 0 0 0 0 0 0 0 0 0 0 0 0 0 0 0 0 0 0 0 0 0
0 0 0 0 0 0 0 0 0 0 0 0 0 0 0 0 0 0 0 0 0 0 0 0 0 0 0 0 0 0 0 0 0 0 0 0 0 0
0 0 0 0 0 0 0 0 0 0 0 0 0 0 0 0 0 0 0 0 0 0 0 0 0 0 0 0 0 0 0 0 0 0 0 0 0 0
Wind_Speed
3 3 3 2 2 2 2 3 3 3 4 3 2 1 1 1 3 2 2 5 6 7 7 7 7 6 6 6 6 7 7 8 7 7 7 7 8 8
3 3 4 3 3 3 3 2 2 3 4 3 3 2 2 3 4 3 3 7 7 7 7 7 7 7 6 7 7 7 7 8 8 8 8 8 8 8
4 4 4 4 3 3 3 3 3 3 4 3 2 2 3 3 3 3 3 3 4 7 7 8 8 8 7 7 7 8 8 8 8 9 9 9 9 9
5 5 5 3 4 4 4 4 4 4 4 5 3 3 4 4 4 4 3 3 3 7 8 8 8 8 8 8 8 8 8 8 9 9 9 10 10 10
5 6 5 5 5 4 5 5 4 4 4 4 4 3 3 2 3 3 4 3 4 6 8 8 8 8 9 8 8 8 8 8 9 9 10 10 10 11
5 5 5 6 6 6 5 6 5 4 4 4 4 3 3 3 3 3 4 3 4 4 6 7 8 9 10 10 9 9 9 9 10 10 10 11 10 10
4 5 5 7 8 6 5 5 5 5 4 4 4 4 4 3 4 3 4 3 4 3 4 4 4 4 5 8 9 9 10 10 10 11 11 11 11 11
5 4 5 6 7 8 8 8 8 6 6 5 5 6 6 5 4 4 4 4 4 3 3 4 3 4 4 4 9 11 11 11 11 11 11 12 11 12
5 4 4 4 6 4 6 9 9 10 9 6 7 7 6 5 6 6 6 6 6 3 3 5 3 5 4 7 12 12 12 12 11 11 11 11 11 12
5 5 5 5 5 5 5 5 6 6 8 6 7 7 6 6 6 6 6 5 4 3 4 5 4 4 5 5 11 12 12 12 11 12 12 12 11 11
5 5 5 6 9 9 6 5 6 5 8 10 9 8 9 9 6 3 3 4 5 4 3 4 3 4 4 5 7 10 10 10 11 12 12 12 12 10
3 4 7 7 9 9 6 5 6 5 4 4 5 6 5 6 8 6 5 5 4 4 3 3 3 2 4 4 3 3 5 8 11 11 12 12 11 6
3 3 4 8 9 9 7 5 7 5 3 3 3 3 3 3 3 4 4 5 5 5 3 3 3 3 4 4 4 3 3 4 4 6 9 12 12 9
4 3 4 9 9 8 6 7 8 5 3 3 3 4 4 3 3 3 4 4 5 6 5 4 4 4 4 5 5 3 3 3 4 5 4 8 9 11
3 6 7 8 7 5 6 7 5 3 3 4 4 4 3 3 3 3 3 3 4 4 4 5 5 5 5 6 5 5 4 4 4 4 4 4 4 4
3 5 6 5 4 4 4 3 3 3 3 4 3 3 2 2 3 3 3 3 3 3 3 4 5 5 5 5 5 5 5 4 3 4 4 5 4 4
2 1 1 1 2 2 2 2 2 2 3 3 3 3 3 3 3 3 3 3 3 4 4 3 3 3 5 5 5 5 5 5 5 4 4 5 5 5
2 1 2 2 2 2 2 2 2 3 3 3 3 3 3 4 4 3 3 3 4 4 4 3 2 3 3 4 6 6 5 5 4 4 4 5 6 5
1 1 2 2 2 2 2 2 3 2 2 3 3 3 3 3 3 4 4 3 3 4 4 3 3 3 4 6 4 5 4 4 4 4 4 5 6 5
1 1 1 2 2 2 2 2 2 2 2 2 3 3 3 3 3 3 3 4 4 4 4 3 3 4 5 5 5 5 6 5 4 5 5 4 4 6
1 1 1 2 2 2 2 2 3 3 2 2 3 3 3 3 3 3 3 5 4 3 4 5 5 6 3 2 3 5 4 6 6 5 4 4 4 4
2 2 2 2 2 2 2 2 2 3 3 2 3 3 3 3 3 4 4 4 4 4 4 4 3 3 2 4 5 5 5 5 6 7 7 6 4 4
2 2 2 2 2 2 2 2 3 3 3 3 3 3 2 3 3 3 3 3 3 3 3 3 3 2 3 3 4 4 5 5 4 3 4 7 9 10
Wind_Direction
220 206 202 198 198 197 185 183 182 215 242 233 233 226 248 261 280 283 278 292 299 301 299 296 292 291 292 295 298 301 306 295 284 273 270 273 268 266
214 205 209 198 197 200 201 209 205 205 236 231 237 254 256 272 279 285 274 290 292 289 289 290 285 284 284 287 289 292 296 300 293 280 269 267 267 267
219 210 215 203 204 204 203 209 217 210 232 257 248 241 225 241 264 265 264 258 268 281 281 285 280 278 277 277 281 286 288 292 291 282 276 272 268 268
222 215 218 211 216 212 208 212 215 214 216 243 245 230 229 234 241 249 270 273 263 275 276 276 278 275 273 272 274 279 283 286 288 285 278 274 270 266
224 217 216 210 217 217 214 215 217 221 216 227 243 243 243 240 252 263 261 259 268 270 271 269 274 276 271 272 273 276 279 282 284 287 283 276 275 270
230 221 216 215 217 213 215 216 216 218 218 221 230 239 244 232 225 247 265 249 263 271 266 266 270 276 273 273 272 272 273 275 278 282 285 280 275 275
237 228 226 231 234 227 222 213 211 215 217 227 230 234 230 222 226 230 253 262 258 248 256 260 264 268 265 268 271 270 271 271 273 276 277 278 276 275
247 242 240 240 243 246 250 243 232 222 222 224 234 234 235 229 225 231 242 255 262 228 235 263 255 262 266 257 263 267 269 272 273 274 276 275 275 275
246 239 244 247 246 238 249 254 252 250 245 237 236 237 238 230 225 230 235 243 255 246 246 265 248 256 263 267 265 265 267 270 272 273 273 277 276 276
242 232 234 238 241 235 233 241 246 249 250 244 235 237 237 231 226 234 235 248 265 251 229 258 258 258 270 267 261 260 264 266 269 271 272 275 275 276
247 243 240 236 244 247 234 237 250 257 265 265 258 255 255 253 245 235 233 239 259 253 224 239 257 273 272 266 263 260 260 264 269 271 273 274 273 274
251 248 251 252 250 250 232 225 238 246 246 261 267 264 253 245 246 230 219 235 258 260 220 220 250 275 281 269 255 258 265 270 274 274 272 272 271 268
251 250 250 259 258 254 251 237 246 251 236 233 242 252 252 240 237 234 227 228 240 255 243 231 249 252 254 276 280 260 253 263 268 272 274 270 267 264
248 249 254 261 260 259 258 259 262 257 223 224 234 241 245 249 245 240 238 242 246 254 251 247 254 248 255 267 272 268 257 256 258 265 266 272 271 268
264 269 270 267 268 258 262 268 262 236 224 227 235 244 246 248 254 254 255 256 265 264 251 253 255 255 252 255 264 269 276 271 254 253 256 260 261 260
274 269 274 276 275 273 265 257 250 242 239 239 240 245 248 242 245 253 259 258 266 277 263 250 250 250 254 257 254 262 260 260 258 258 262 266 262 252
268 241 239 244 250 259 256 249 244 247 249 242 239 241 244 245 249 249 251 254 253 259 274 277 268 266 260 254 257 255 258 261 260 257 256 263 261 253
273 209 230 240 247 250 258 263 255 245 248 248 243 239 238 239 246 248 245 244 251 260 262 266 277 299 301 281 247 254 257 261 265 259 253 259 266 262
231 226 234 240 244 244 246 252 261 259 254 247 244 243 242 243 246 249 244 244 250 257 265 262 251 243 258 273 278 256 254 264 266 264 256 250 260 267
289 255 249 245 248 247 246 251 257 261 256 254 251 248 244 243 245 245 244 243 249 257 266 265 247 238 242 258 274 281 268 258 259 266 271 271 269 279
287 274 266 258 252 255 251 248 250 250 250 252 253 252 248 243 245 246 248 255 259 251 254 261 261 271 279 273 274 279 280 271 270 263 262 270 278 276
280 273 272 269 265 259 257 252 250 250 247 247 251 252 251 244 243 246 248 254 256 255 263 275 280 275 259 247 261 277 289 296 290 285 271 254 242 244
281 280 275 271 266 265 266 258 252 253 248 245 248 249 248 249 249 248 249 250 257 264 275 282 287 281 268 260 266 278 283 291 291 292 282 280 276 273